[[{"header":{"parameterUnit":"m.s-1","parameterCategory":1,"la1":30.2991,"la2":30.254,"lo1":-89.0895,"lo2":-89.0444,"dy":0.0017,"dx":0.0017,"nx":28,"ny":28,"refTime":"2024-06-30T09:00:00:Z","depth":0,"parameterNumber":2,"parameterNumberName":"U-component_of_WINDS"},"data":[0,0,0,0,0,0,0,0,0,0,0,0,0,0,0,0,0,0,0,0,0,0,0,0,0,0,0,0,0,0,0,0,0,0,0,0,0,0,0,0,0,0,0,0,0,0,0,0,0,0,0,0,0,0,0,0,0,0,0.7557,0.7558,0,0.7642,0.7643,0.7644,0.7667,0.7666,0.7666,0.7665,0.7762,0.7765,0.7768,0,0,0,0,0,0,0,0,0,0,0,0,0,0.742,0.7422,0.7557,0.7558,0.7559,0.7642,0.7644,0.7645,0.7667,0.7666,0.7665,0.7665,0.7761,0.7764,0.7768,0,0,0,0,0,0,0,0,0,0,0,0,0,0.749,0.7423,0.7556,0.758,0.7583,0.7642,0.7644,0.7645,0.7667,0.7666,0.7665,0.7665,0.7759,0.7764,0.7768,0.7814,0,0,0.7783,0.7785,0,0,0,0,0,0,0,0,0.7486,0.7495,0.7575,0.7578,0.7582,0.7643,0.7631,0.7702,0.7667,0.7635,0.7665,0.7664,0.7723,0.7731,0.7749,0.7818,0.7822,0.7783,0.7786,0.7788,0.7789,0,0,0,0,0,0,0,0.7481,0.7492,0.7591,0.7576,0.758,0.7588,0.7597,0.7644,0.7683,0.7638,0.764,0.7649,0.7725,0.7745,0.7751,0.7824,0.7783,0.7787,0.779,0.7792,0.7935,0.7936,0,0,0,0,0,0,0.7471,0.7487,0.7588,0.7593,0.753,0.7591,0.7602,0.7624,0.7683,0.7691,0.765,0.765,0.7737,0.7746,0.7755,0.7813,0.7788,0.7792,0.7795,0.7934,0.7935,0.7937,0,0,0,0,0,0,0.7468,0.748,0.7585,0.7541,0.7555,0.7595,0.762,0.7626,0.7646,0.7691,0.7699,0.7662,0.7737,0.7748,0.7798,0.7816,0.7794,0.7798,0.7933,0.7935,0.7936,0.7928,0,0,0,0,0,0,0.7464,0.7479,0.7494,0.7541,0.7557,0.7624,0.7621,0.7629,0.7653,0.7654,0.7705,0.7713,0.7737,0.7791,0.7803,0.7822,0.7802,0.7932,0.7934,0.7936,0.7927,0.7929,0.793,0,0,0,0,0,0.7459,0.749,0.7495,0.7507,0.7577,0.7625,0.7635,0.7659,0.7654,0.7672,0.7701,0.7711,0.7812,0.7796,0.781,0.7831,0.7931,0.7933,0.7935,0.7926,0.7928,0.793,0,0,0,0,0,0,0.7449,0.7497,0.7503,0.755,0.7583,0.7629,0.7652,0.7661,0.7699,0.7699,0.773,0.7742,0.779,0.7815,0.7797,0.7878,0.7872,0.7877,0.786,0.7863,0.7864,0.7859,0.7806,0,0,0,0,0,0.7451,0.7483,0.7525,0.7562,0.7578,0.7612,0.7634,0.7649,0.7687,0.7702,0.7735,0.7772,0.7813,0.7839,0.7878,0.7929,0.7942,0.7951,0.7952,0.7954,0.7959,0.7989,0.7994,0.7944,0.7944,0.7944,0,0,0.7458,0.7488,0.7507,0.7561,0.7589,0.7624,0.7624,0.7661,0.7689,0.7708,0.7757,0.7782,0.7827,0.7878,0.7902,0.79,0.7975,0.7957,0.7958,0.7962,0.7992,0.7997,0.8001,0.7946,0.7946,0.7945,0,0,0.7488,0.7514,0.7548,0.7575,0.7615,0.7637,0.7645,0.7689,0.7706,0.7755,0.777,0.7804,0.7872,0.7904,0.7928,0.7969,0.7981,0.7981,0.7993,0.8022,0.8026,0.8029,0.8046,0.8051,0.7985,0.7985,0.7985,0,0.7493,0.7544,0.7565,0.7601,0.7625,0.7641,0.7677,0.7703,0.7756,0.7773,0.7769,0.7855,0.7886,0.7945,0.7954,0.7973,0.7986,0.7977,0.8023,0.8027,0.8031,0.8047,0.8052,0.7985,0.7985,0.7985,0.7985,0,0.7548,0.7583,0.7607,0.7653,0.768,0.7716,0.7745,0.777,0.7782,0.7805,0.7856,0.7893,0.794,0.7955,0.7969,0.8016,0.8014,0.8016,0.8011,0.8035,0.8051,0.8057,0.7985,0.7985,0.7985,0.7985,0,0,0.7578,0.7633,0.7642,0.7663,0.7708,0.7737,0.7775,0.7818,0.7839,0.7875,0.7909,0.7965,0.7967,0.7995,0.8013,0.8038,0.807,0.8037,0.8039,0.8044,0.8126,0.8126,0.8132,0.8076,0.8078,0.8079,0.8123,0,0.7615,0.768,0.7699,0.7754,0.7788,0.7803,0.7835,0.7868,0.789,0.7924,0.795,0.799,0.7988,0.8005,0.8031,0.806,0.8087,0.8057,0.8112,0.8113,0.8102,0.814,0.814,0.818,0.8129,0.813,0.8131,0,0.7669,0.7702,0.7759,0.7799,0.7814,0.7843,0.7885,0.7916,0.7954,0.7968,0.7998,0.8013,0.8055,0.8046,0.8106,0.8085,0.8108,0.8126,0.8128,0.8136,0.8125,0.8151,0.8193,0.82,0.814,0.8139,0.8139,0,0.7687,0.7745,0.7788,0.7805,0.7853,0.7873,0.7894,0.793,0.7955,0.7992,0.8009,0.8051,0.8075,0.8108,0.8135,0.8125,0.8194,0.8186,0.8209,0.8209,0.8226,0.8225,0.8274,0.8236,0.8236,0.8236,0.8236,0,0.7728,0.7764,0.7796,0.7822,0.7863,0.7885,0.7926,0.7948,0.798,0.8013,0.8028,0.8059,0.8092,0.8128,0.815,0.8197,0.8207,0.8222,0.8228,0.8222,0.8221,0.824,0.8239,0.8238,0.8237,0.8237,0.8237,0,0.7757,0.7779,0.7826,0.7866,0.7877,0.7905,0.7941,0.7968,0.7989,0.8031,0.8042,0.8077,0.812,0.8149,0.8205,0.822,0.8272,0.8276,0.8258,0.8262,0.8284,0.8283,0.835,0.8361,0.8313,0.8314,0.8314,0,0.7783,0.781,0.7852,0.7873,0.7893,0.7928,0.7952,0.7975,0.8,0.8044,0.8067,0.811,0.8146,0.8215,0.8248,0.8291,0.8298,0.8318,0.8305,0.8298,0.8301,0.83,0.8304,0.8321,0.8322,0.8322,0.8322,0,0.7829,0.7838,0.7871,0.7907,0.7935,0.7965,0.7997,0.8014,0.8043,0.8071,0.8113,0.8141,0.8196,0.824,0.8286,0.8311,0.8323,0.8325,0.8334,0.833,0.8319,0.8327,0.8267,0.8325,0.8325,0.8324,0.8324,0.8324,0.7859,0.7884,0.7916,0.7952,0.7977,0.8005,0.8033,0.8056,0.809,0.8135,0.8147,0.8192,0.823,0.8292,0.8317,0.8354,0.8353,0.8364,0.8368,0.8371,0.8372,0.831,0.8363,0.8363,0.8363,0.8363,0.8363,0,0.7907,0.7928,0.796,0.8002,0.803,0.8033,0.8068,0.8093,0.8131,0.8163,0.8197,0.8246,0.8288,0.8323,0.8367,0.839,0.8397,0.8401,0.8402,0.8407,0.837,0.8359,0.8395,0.8395,0.8395,0.8395,0.8395,0.8395,0.7936,0.7978,0.7991,0.8046,0.8067,0.8109,0.8128,0.8155,0.8181,0.8234,0.8268,0.8288,0.8322,0.8368,0.8408,0.8417,0.8434,0.8438,0.8449,0.8413,0.841,0.8407,0.8397,0.844,0.844,0.8483,0.8484,0.8484]},{"header":{"parameterUnit":"m.s-1","parameterCategory":1,"la1":30.2991,"la2":30.254,"lo1":-89.0895,"lo2":-89.0444,"dy":0.0017,"dx":0.0017,"nx":28,"ny":28,"refTime":"2024-06-30T09:00:00:Z","depth":0,"parameterNumber":3,"parameterNumberName":"V-component_of_WINDS"},"data":[0,0,0,0,0,0,0,0,0,0,0,0,0,0,0,0,0,0,0,0,0,0,0,0,0,0,0,0,0,0,0,0,0,0,0,0,0,0,0,0,0,0,0,0,0,0,0,0,0,0,0,0,0,0,0,0,0,0,-2.0907,-2.0907,0,-2.0868,-2.0867,-2.0867,-2.0858,-2.0858,-2.0859,-2.0859,-2.0817,-2.0816,-2.0815,0,0,0,0,0,0,0,0,0,0,0,0,0,-2.0975,-2.0974,-2.0907,-2.0907,-2.0906,-2.0868,-2.0867,-2.0867,-2.0858,-2.0858,-2.0859,-2.0859,-2.0818,-2.0816,-2.0815,0,0,0,0,0,0,0,0,0,0,0,0,0,-2.0942,-2.0974,-2.0907,-2.0897,-2.0896,-2.0868,-2.0867,-2.0866,-2.0858,-2.0858,-2.0859,-2.0859,-2.0818,-2.0816,-2.0814,-2.0793,0,0,-2.0808,-2.0807,0,0,0,0,0,0,0,0,-2.0944,-2.0939,-2.0899,-2.0898,-2.0896,-2.0868,-2.0876,-2.0842,-2.0858,-2.0872,-2.0859,-2.0859,-2.0834,-2.0831,-2.0822,-2.0791,-2.0789,-2.0808,-2.0807,-2.0806,-2.0805,0,0,0,0,0,0,0,-2.0946,-2.0941,-2.0891,-2.0899,-2.0897,-2.0895,-2.0891,-2.0869,-2.0851,-2.0871,-2.087,-2.0866,-2.0833,-2.0824,-2.0821,-2.0789,-2.0808,-2.0806,-2.0805,-2.0804,-2.074,-2.0739,0,0,0,0,0,0,-2.095,-2.0943,-2.0893,-2.089,-2.0922,-2.0893,-2.0888,-2.0877,-2.0851,-2.0848,-2.0866,-2.0866,-2.0827,-2.0824,-2.082,-2.0794,-2.0806,-2.0804,-2.0803,-2.074,-2.074,-2.0739,0,0,0,0,0,0,-2.0952,-2.0946,-2.0894,-2.0916,-2.091,-2.0892,-2.0879,-2.0876,-2.0867,-2.0847,-2.0844,-2.086,-2.0828,-2.0822,-2.08,-2.0792,-2.0803,-2.0801,-2.0741,-2.074,-2.074,-2.0742,0,0,0,0,0,0,-2.0954,-2.0946,-2.0938,-2.0916,-2.0909,-2.0875,-2.0878,-2.0875,-2.0863,-2.0863,-2.0841,-2.0837,-2.0828,-2.0803,-2.0798,-2.079,-2.0799,-2.0742,-2.0741,-2.074,-2.0743,-2.0742,-2.0741,0,0,0,0,0,-2.0956,-2.0939,-2.0937,-2.0931,-2.0898,-2.0875,-2.087,-2.086,-2.0863,-2.0854,-2.0842,-2.0838,-2.0794,-2.0801,-2.0795,-2.0786,-2.0742,-2.0741,-2.074,-2.0743,-2.0742,-2.0741,0,0,0,0,0,0,-2.096,-2.0936,-2.0934,-2.091,-2.0894,-2.0873,-2.0862,-2.0858,-2.0842,-2.0842,-2.0829,-2.0824,-2.0803,-2.0792,-2.08,-2.0765,-2.0768,-2.0766,-2.0773,-2.0771,-2.077,-2.0773,-2.0798,0,0,0,0,0,-2.0958,-2.0941,-2.0922,-2.0902,-2.0895,-2.088,-2.087,-2.0863,-2.0847,-2.084,-2.0826,-2.081,-2.0793,-2.0781,-2.0764,-2.0741,-2.0737,-2.0732,-2.0731,-2.0731,-2.0729,-2.0717,-2.0715,-2.0736,-2.0736,-2.0736,0,0,-2.0953,-2.0939,-2.0929,-2.0903,-2.089,-2.0874,-2.0875,-2.0857,-2.0845,-2.0837,-2.0815,-2.0805,-2.0786,-2.0764,-2.0753,-2.0754,-2.0722,-2.0729,-2.0729,-2.0727,-2.0716,-2.0714,-2.0713,-2.0735,-2.0735,-2.0735,0,0,-2.0937,-2.0924,-2.0907,-2.0895,-2.0876,-2.0867,-2.0863,-2.0843,-2.0836,-2.0814,-2.0809,-2.0794,-2.0764,-2.0752,-2.0741,-2.0723,-2.0719,-2.0718,-2.0712,-2.0701,-2.07,-2.0698,-2.0693,-2.0691,-2.0716,-2.0716,-2.0716,0,-2.0934,-2.0909,-2.0899,-2.0882,-2.0871,-2.0865,-2.0848,-2.0836,-2.0813,-2.0806,-2.0807,-2.0771,-2.0758,-2.0733,-2.0729,-2.0721,-2.0716,-2.072,-2.0701,-2.0699,-2.0698,-2.0692,-2.069,-2.0716,-2.0716,-2.0716,-2.0716,0,-2.0906,-2.0889,-2.0878,-2.0857,-2.0845,-2.0828,-2.0816,-2.0805,-2.08,-2.079,-2.0769,-2.0754,-2.0734,-2.0728,-2.0722,-2.0703,-2.0704,-2.0704,-2.0706,-2.0696,-2.0691,-2.0688,-2.0716,-2.0716,-2.0716,-2.0716,0,0,-2.089,-2.0865,-2.0861,-2.0852,-2.0831,-2.0818,-2.0802,-2.0783,-2.0775,-2.0759,-2.0746,-2.0722,-2.0722,-2.071,-2.0703,-2.0693,-2.0681,-2.0694,-2.0694,-2.0693,-2.066,-2.0661,-2.0659,-2.0679,-2.0678,-2.0678,-2.0662,0,-2.0871,-2.0842,-2.0833,-2.0809,-2.0794,-2.0788,-2.0774,-2.0761,-2.0752,-2.0738,-2.0728,-2.0712,-2.0712,-2.0706,-2.0696,-2.0685,-2.0675,-2.0686,-2.0666,-2.0666,-2.0671,-2.0656,-2.0656,-2.0642,-2.066,-2.066,-2.0659,0,-2.0846,-2.0831,-2.0805,-2.0789,-2.0782,-2.077,-2.0753,-2.074,-2.0725,-2.0719,-2.0707,-2.0702,-2.0685,-2.0689,-2.0667,-2.0675,-2.0666,-2.066,-2.0659,-2.0657,-2.0662,-2.0654,-2.0637,-2.0635,-2.0656,-2.0656,-2.0656,0,-2.0837,-2.0811,-2.0793,-2.0785,-2.0765,-2.0757,-2.0748,-2.0734,-2.0724,-2.0709,-2.0703,-2.0686,-2.0677,-2.0665,-2.0656,-2.0659,-2.0634,-2.0637,-2.0629,-2.063,-2.0624,-2.0624,-2.0606,-2.0618,-2.0618,-2.0618,-2.0618,0,-2.0818,-2.0803,-2.0789,-2.0778,-2.0761,-2.0751,-2.0735,-2.0726,-2.0713,-2.0701,-2.0695,-2.0683,-2.0671,-2.0658,-2.065,-2.0633,-2.0629,-2.0624,-2.0622,-2.0625,-2.0626,-2.0619,-2.062,-2.0618,-2.0618,-2.0618,-2.0618,0,-2.0805,-2.0796,-2.0775,-2.0759,-2.0755,-2.0743,-2.0729,-2.0718,-2.071,-2.0694,-2.0689,-2.0676,-2.0661,-2.065,-2.0629,-2.0625,-2.0606,-2.0604,-2.0612,-2.0611,-2.0604,-2.0605,-2.0581,-2.0577,-2.0591,-2.0591,-2.0591,0,-2.0794,-2.0782,-2.0765,-2.0756,-2.0748,-2.0734,-2.0724,-2.0715,-2.0705,-2.0689,-2.068,-2.0664,-2.0651,-2.0626,-2.0615,-2.0599,-2.0597,-2.059,-2.0595,-2.0598,-2.0598,-2.0599,-2.0598,-2.0589,-2.0589,-2.0589,-2.0589,0,-2.0775,-2.0771,-2.0757,-2.0743,-2.0732,-2.0719,-2.0707,-2.07,-2.0689,-2.0679,-2.0663,-2.0653,-2.0633,-2.0618,-2.0602,-2.0593,-2.0589,-2.0588,-2.0585,-2.0588,-2.0593,-2.0591,-2.061,-2.0588,-2.0588,-2.0588,-2.0588,-2.0588,-2.0762,-2.0753,-2.0739,-2.0725,-2.0715,-2.0704,-2.0694,-2.0685,-2.0672,-2.0655,-2.0651,-2.0635,-2.0622,-2.06,-2.0591,-2.0579,-2.0579,-2.0575,-2.0575,-2.0574,-2.0574,-2.0595,-2.0576,-2.0576,-2.0576,-2.0576,-2.0576,0,-2.0744,-2.0735,-2.0722,-2.0706,-2.0695,-2.0694,-2.0681,-2.0671,-2.0658,-2.0646,-2.0633,-2.0616,-2.0602,-2.059,-2.0575,-2.0568,-2.0566,-2.0564,-2.0565,-2.0563,-2.0574,-2.0578,-2.0566,-2.0566,-2.0566,-2.0566,-2.0566,-2.0566,-2.0732,-2.0716,-2.0711,-2.069,-2.0682,-2.0666,-2.0659,-2.0649,-2.064,-2.0621,-2.061,-2.0602,-2.0591,-2.0576,-2.0563,-2.056,-2.0555,-2.0553,-2.055,-2.0561,-2.0562,-2.0563,-2.0567,-2.0552,-2.0552,-2.054,-2.054,-2.054]}]]